Skip Navigation Links weather.gov 
NOAA logo-Select to go to the NOAA homepage NDBC Title GraphicClick to go to NDBC home page   Select to go to the NWS homepage
Home About Us Contact Us
 
 
    
    Station List

 Data Access
    Mobile Access
    Classic Maps
         Recent
         DART®
    Obs Search
    Ship Obs Report
    BuoyCAMs
    TAO
    DODS
    OceanSITES
    HF Radar
    OSMC
    Dial-A-Buoy
    RSS Feeds Image indicating link to RSS feed access page
    Web Widget
    Email Access
    Web Data Guide
    Maintenance Schedule
    Station Status Report

 Program Info
    TAO
    DART®
    VOS
    IOOS®

 Publications
    NDBC PEA
    NDBC FONSI
    NDBC DQC Handbook

 FAQ
 Visitor Information
 
USA.gov is the U.S. government's official web portal to all federal, state and local government web resources and services.

Hurricane Symbol Storm Special! View the latest observations near Atlantic Subtropical Storm Alberto.

Station MTBF1 - 8726412 - Middle Tampa Bay, FL Image indicating link to RSS feed of recent meteorological observations for station MTBF1

Owned and maintained by NOAA's National Ocean Service
C-MAN Station
27.661 N 82.594 W (27°39'40" N 82°35'38" W)

Site elevation: 0 m above mean sea level
Air temp height: 4.9 m above site elevation
Anemometer height: 6.7 m above site elevation
Barometer elevation: 4.9 m above mean sea level

Latest NWS Marine Forecast

Search And Rescue (SAR) Data

Meteorological Observations from Nearby Stations and Ships Image indicating link to RSS feed of recent meteorological observations near station MTBF1

Regional HF Radar Surface Current Observations

Large icon indicates selected station.
yellow diamond Stations with recent data
red diamond Stations with no data in last 8 hours
     (24 hours for tsunami stations)


Conditions at MTBF1 as of
(5:00 am EDT)
0900 GMT on 05/28/2018:
     

Click on the graph icon in the table below to see a time series plot of the last five days of that observation.

5-day plot - Wind Direction Wind Direction (WDIR): S ( 170 deg true )
5-day plot - Wind Speed Wind Speed (WSPD): 11 kts
5-day plot - Wind Gust Wind Gust (GST): 15 kts
5-day plot - Atmospheric Pressure Atmospheric Pressure (PRES): 29.75 in
5-day plot - Pressure Tendency Pressure Tendency (PTDY): -0.01 in ( Falling )
5-day plot - Air Temperature Air Temperature (ATMP): 78.1 °F
5-day plot - Dew Point Dew Point (DEWP): 73.9 °F
5-day plot - Visibility Visibility (VIS): 5.9 nmi
5-day plot - Heat Index Heat Index (HEAT): 80.6 °F
5-day plot - Wind Speed at 10 Meters Wind Speed at 10 meters (WSPD10M): 12 kts
5-day plot - Wind Speed at 10 Meters Wind Speed at 20 meters (WSPD20M): 14 kts
5-day plot - Wind Speed, Wind Gust and Atmospheric Pressure Combined plot of Wind Speed, Gust, and Air Pressure
NOS Water Level Observation Network Water Level
Previous observations
5-day plot - Wind Direction 5-day plot - Wind Speed 5-day plot - Wind Gust 5-day plot - Wave Height 5-day plot - Dominant Wave Period 5-day plot - Average Period 5-day plot - Mean Wave Direction 5-day plot - Atmospheric Pressure 5-day plot - Pressure Tendency 5-day plot - Air Temperature 5-day plot - Water Temperature 5-day plot - Dew Point 5-day plot - Salinity 5-day plot - Visibility 5-day plot - Tide (above MLLW)
MM DD TIME
(EDT)
WDIR WSPD
kts
GST
kts
WVHT
ft
DPD
sec
APD
sec
MWD PRES
in
PTDY
in
ATMP
°F
WTMP
°F
DEWP
°F
SAL
psu
VIS
nmi
TIDE
ft
0528 4:54 am S 13 15----29.75- 78.1- 73.9- 5.9-
0528 4:48 am S 12 14----29.75- 78.1- 74.1- 5.9-
0528 4:42 am S 12 15----29.75- 78.1- 74.1- 5.9-
0528 4:36 am S 13 17----29.75- 78.1- 73.9- 5.9-
0528 4:30 am S 12 16----29.75- 77.9- 73.9- 5.9-
0528 4:24 am S 13 16----29.75- 77.9- 73.9- 5.9-
0528 4:18 am S 12 15----29.75- 77.9- 73.9- 5.9-
0528 4:12 am S 13 15----29.75- 77.9- 73.9- 5.9-
0528 4:06 amSSE 13 16----29.75- 77.9- 73.8- 5.9-
0528 4:00 amSSE 13 16----29.75-0.03 77.9- 73.8- 5.9-
0528 3:54 am S 13 17----29.74- 77.9- 73.8- 5.9-
0528 3:48 am S 15 18----29.75- 77.9- 73.8- 5.9-
0528 3:42 am S 14 17----29.74- 77.7- 73.4- 5.9-
0528 3:36 amSSE 14 16----29.75- 77.9- 73.8- 5.9-
0528 3:30 amSSE 15 17----29.74- 77.9- 73.6- 5.9-
0528 3:24 amSSE 15 19----29.74- 77.9- 73.6- 5.9-
0528 3:18 amSSE 14 19----29.75- 77.9- 73.6- 5.9-
0528 3:12 am S 15 18----29.75- 77.9- 73.6- 5.9-
0528 3:06 amSSE 14 17----29.74- 77.9- 73.4- 5.9-
0528 3:00 am S 16 18----29.75-0.03 78.1- 73.8- 5.9-
0528 2:54 am S 15 17----29.75- 77.9- 73.6- 5.9-
0528 2:48 am S 15 17----29.75- 77.9- 73.6- 5.9-
0528 2:42 am S 14 17----29.75- 78.1- 73.9- 5.9-
0528 2:36 am S 14 17----29.76- 78.1- 73.8- 5.9-
0528 2:30 am S 15 18----29.76- 78.1- 73.8- 5.9-
0528 2:24 am S 14 18----29.76- 78.1- 73.8- 5.9-
0528 2:18 am S 14 17----29.76- 78.3- 73.9- 5.9-
0528 2:12 am S 15 17----29.76- 78.3- 73.9- 5.9-
0528 2:06 am S 14 17----29.76- 78.3- 73.8- 5.9-
0528 2:00 am S 15 17----29.76+0.00 78.4- 73.9- 5.9-
0528 1:54 am S 15 18----29.76- 78.4- 74.1- 5.9-
0528 1:48 am S 16 19----29.77- 78.4- 74.1- 5.9-
0528 1:42 am S 16 18----29.77- 78.4- 74.1- 5.9-
0528 1:36 am S 15 19----29.77- 78.4- 74.1- 5.9-
0528 1:30 am S 16 18----29.77- 78.4- 73.9- 5.9-
0528 1:24 amSSE 14 17----29.78- 78.4- 73.9- 5.9-
0528 1:18 amSSE 14 17----29.78- 78.4- 73.9- 5.9-
0528 1:12 amSSE 15 18----29.78- 78.4- 73.9- 5.9-
0528 1:06 amSSE 15 17----29.78- 78.4- 73.9- 5.9-
0528 1:00 amSSE 15 17----29.77+0.01 78.4- 73.8- 5.9-
052812:54 amSSE 16 19----29.77- 78.4- 73.9- 5.9-
052812:48 am S 15 18----29.77- 78.4- 73.8- 5.9-
052812:42 am S 16 19----29.77- 78.3- 73.8- 5.9-
052812:36 am S 16 19----29.77- 78.3- 73.8- 5.9-
052812:30 am S 17 20----29.78- 78.4- 74.1- 5.9-
052812:24 am S 16 19----29.77- 78.3- 73.8- 5.9-
052812:18 am S 16 19----29.77- 78.3- 73.8- 5.9-
052812:12 am S 15 18----29.78- 78.3- 73.8- 5.9-
052812:06 am S 15 20----29.78- 78.3- 73.8- 5.9-
052812:00 am S 15 17----29.78+0.04 78.1- 73.6- 5.9-
052711:54 pm S 15 17----29.78- 78.1- 73.4- 5.9-
052711:48 pm S 14 17----29.78- 78.3- 73.6- 5.9-
052711:42 pmSSE 13 18----29.77- 78.3- 73.4- 5.9-
052711:36 pmSSE 15 18----29.77- 78.4- 73.6- 5.9-
052711:30 pm S 15 19----29.77- 78.3- 73.4- 5.9-
052711:24 pmSSE 16 19----29.77- 78.4- 73.6- 5.9-
052711:18 pmSSE 15 18----29.78- 78.4- 73.4- 5.9-
052711:12 pm S 16 19----29.77- 78.6- 73.4- 5.9-
052711:06 pm S 16 19----29.77- 78.6- 73.2- 5.9-
052711:00 pmSSE 16 21----29.77+0.04 78.6- 73.4- 5.9-
052710:54 pmSSE 16 18----29.77- 78.8- 73.6- 5.9-
052710:48 pm S 17 22----29.77- 78.8- 73.4- 5.9-
052710:42 pm S 19 22----29.77- 79.0- 73.6- 5.9-
052710:36 pm S 16 22----29.77- 79.0- 73.6- 5.9-
052710:30 pm S 17 20----29.77- 79.0- 73.6- 5.9-
052710:24 pm S 16 20----29.77- 79.0- 73.6- 5.9-
052710:18 pm S 15 19----29.77- 79.0- 73.4- 5.9-
052710:12 pm S 16 19----29.76- 79.0- 73.6- 5.9-
052710:06 pm S 16 19----29.77- 79.2- 73.6- 5.9-
052710:00 pm S 16 19----29.76+0.06 79.2- 73.4- 5.9-
0527 9:54 pm S 17 20----29.76- 79.2- 73.6- 5.9-
0527 9:48 pm S 15 19----29.76- 79.0- 73.0- 5.9-
0527 9:42 pm S 15 19----29.75- 79.2- 73.4- 5.9-
0527 9:36 pm S 16 18----29.75- 79.2- 73.2- 5.9-
0527 9:30 pm S 14 18----29.75- 79.2- 73.0- 5.9-
0527 9:24 pmSSE 13 15----29.74- 79.2- 72.9- 5.9-
0527 9:18 pm S 12 17----29.74- 79.3- 72.9- 5.9-
0527 9:12 pm S 15 17----29.74- 79.3- 72.9- 5.9-
0527 9:06 pm S 14 16----29.74- 79.3- 72.5- 5.9-
0527 9:00 pm S 14 16----29.74+0.03 79.3- 72.5- 5.9-
0527 8:54 pm S 15 17----29.74- 79.5- 72.5- 5.9-
0527 8:48 pm S 14 19----29.74- 79.5- 72.5- 5.9-
0527 8:42 pm S 12 14----29.74- 79.7- 72.5- 5.9-
0527 8:36 pm S 14 17----29.73- 79.7- 72.1- 5.9-
0527 8:30 pm S 14 16----29.73- 79.7- 72.3- 5.9-
0527 8:24 pm S 12 17----29.73- 79.7- 72.3- 5.9-
0527 8:18 pm S 13 15----29.73- 79.9- 72.3- 5.9-
0527 8:12 pm S 13 16----29.73- 80.1- 72.1- 5.9-
0527 8:06 pm S 15 18----29.73- 80.2- 72.1- 5.9-
0527 8:00 pm S 14 17----29.72+0.02 80.2- 71.8- 5.9-
0527 7:54 pm S 14 17----29.72- 80.2- 72.0- 5.9-
0527 7:48 pm S 14 18----29.72- 80.2- 71.8- 5.9-
0527 7:42 pm S 15 18----29.72- 80.4- 71.6- 5.9-
0527 7:36 pm S 16 20----29.71- 80.6- 71.1- 5.9-
0527 7:30 pm S 17 21----29.71- 80.8- 70.9- 5.9-
0527 7:24 pm S 19 21----29.70- 80.8- 71.4- 5.9-
0527 7:18 pm S 19 21----29.70- 81.1- 72.1- 5.9-
0527 7:12 pm S 17 21----29.70- 81.5- 72.9- 5.9-
0527 7:06 pmSSW 15 18----29.70- 81.3- 72.3- 5.9-
0527 7:00 pmSSW 16 21----29.70+0.00 81.1- 72.7- 5.9-
0527 6:54 pm S 16 20----29.70- 81.3- 73.0- 5.9-
0527 6:48 pmSSW 16 19----29.70- 81.5- 72.7- 5.9-
0527 6:42 pmSSW 16 19----29.70- 81.5- 72.7- 5.9-
0527 6:36 pmSSW 15 19----29.70- 81.0- 72.3- 5.9-
0527 6:30 pmSSW 17 21----29.70- 81.0- 72.9- 5.9-
0527 6:24 pmSSW 15 19----29.71- 81.0- 72.9- 5.9-
0527 6:18 pmSSW 15 21----29.70- 80.6- 72.3- 5.9-
0527 6:12 pm S 16 19----29.70- 80.4- 72.5- 5.9-
0527 6:06 pmSSW 17 20----29.71- 80.8- 72.3- 5.9-
0527 6:00 pmSSW 17 19----29.71+0.01 81.0- 72.9- 5.9-
0527 5:54 pmSSW 16 19----29.71- 80.8- 73.0- 5.9-
0527 5:48 pmSSW 15 18----29.71- 81.0- 73.2- 5.9-
0527 5:42 pmSSW 15 19----29.70- 80.4- 72.7- 5.9-
0527 5:36 pmSSW 14 18----29.70- 80.6- 73.2- 5.9-
0527 5:30 pm S 17 19----29.70- 80.6- 73.0- 5.9-
0527 5:24 pm S 16 18----29.70- 80.8- 73.2- 5.9-
0527 5:18 pmSSW 15 19----29.70- 80.6- 72.7- 5.9-
0527 5:12 pmSSW 16 20----29.70- 80.4- 72.7- 5.9-
0527 5:06 pmSSW 17 19----29.70- 80.2- 72.7- 5.9-
0527 5:00 pmSSW 16 20----29.70+0.01 80.4- 72.7- 5.9-
0527 4:54 pmSSW 16 19----29.71- 80.8- 72.9- 5.9-
0527 4:48 pmSSW 15 19----29.70- 80.4- 72.5- 5.9-
0527 4:42 pmSSW 17 19----29.70- 80.4- 72.3- 5.9-
0527 4:36 pmSSW 17 19----29.70- 80.4- 72.3- 5.9-
0527 4:30 pmSSW 15 18----29.70- 80.4- 73.2- 5.9-
0527 4:24 pmSSW 15 18----29.70- 80.4- 73.0- 5.9-
0527 4:18 pmSSW 16 20----29.70- 80.4- 72.9- 5.9-
0527 4:12 pmSSW 15 20----29.70- 80.4- 73.0- 5.9-
0527 4:06 pmSSW 18 21----29.70- 80.4- 72.9- 5.9-
0527 4:00 pmSSW 17 19----29.70+0.00 80.6- 73.0- 5.9-
0527 3:54 pmSSW 17 20----29.70- 80.4- 72.7- 5.9-
0527 3:48 pmSSW 17 21----29.70- 80.6- 73.0- 5.9-
0527 3:42 pmSSW 18 20----29.70- 80.4- 72.9- 5.9-
0527 3:36 pmSSW 18 21----29.71- 80.2- 72.9- 5.9-
0527 3:30 pmSSW 17 21----29.70- 80.2- 72.9- 5.9-
0527 3:24 pmSSW 17 21----29.70- 80.2- 72.9- 5.9-
0527 3:18 pmSSW 19 22----29.70- 80.2- 72.9- 5.9-
0527 3:12 pmSSW 18 22----29.70- 80.6- 73.0- 5.9-
0527 3:06 pmSSW 18 22----29.70- 80.4- 72.7- 5.9-
0527 3:00 pmSSW 20 23----29.70+0.01 80.4- 72.7- 5.9-
0527 2:54 pmSSW 19 22----29.70- 74.3- 65.1- 5.9-
0527 2:48 pmSSW 20 24----29.70- 80.6- 72.9- 5.9-
0527 2:42 pmSSW 21 24----29.70- 80.6- 73.0- 5.9-
0527 2:36 pmSSW 18 23----29.70- 80.6- 72.9- 5.9-
0527 2:30 pmSSW 20 23----29.70- 80.8- 73.0- 5.9-
0527 2:24 pmSSW 21 25----29.70- 80.8- 72.9- 5.9-
0527 2:18 pmSSW 20 23----29.70- 81.1- 73.4- 5.9-
0527 2:12 pmSSW 18 23----29.69- 81.0- 73.0- 5.9-
0527 2:06 pm S 19 22----29.69- 80.8- 73.2- 5.9-
0527 2:00 pm S 16 21----29.69-0.01 80.8- 72.7- 5.9-
0527 1:54 pmSSW 20 22----29.69- 80.6- 72.7- 5.9-
0527 1:48 pm S 19 21----29.69- 80.4- 73.2- 5.9-
0527 1:42 pmSSW 19 22----29.69- 79.9- 72.9- 5.9-
0527 1:36 pm S 20 22----29.70- 79.7- 73.9- 5.9-
0527 1:30 pm S 14 22----29.70- 79.2- 73.9- 5.9-
0527 1:24 pm S 12 17----29.70- 78.8- 73.9- 5.9-
0527 1:18 pm S 16 19----29.70- 78.3- 73.9- 5.9-
0527 1:12 pm S 16 18----29.70- 77.7- 74.1- 5.9-
0527 1:06 pm S 16 19----29.70- 77.5- 74.3- 5.9-
0527 1:00 pm S 15 20----29.70+0.00 77.4- 74.1- 5.9-
052712:54 pm S 16 19----29.71- 77.5- 74.3- 5.9-
052712:48 pm S 17 20----29.70- 77.5- 73.8- 4.9-
052712:42 pmSSE 19 22----29.70- 78.3- 73.6- 4.3-
052712:36 pmSSE 21 25----29.69- 78.4- 73.6- 5.9-
052712:30 pmSSE 18 26----29.69- 78.8- 73.2- 5.9-
052712:24 pmSSE 20 26----29.69- 79.0- 73.2- 5.9-
052712:18 pmSSE 22 28----29.69- 79.0- 73.0- 5.9-
052712:12 pmSSE 22 27----29.69- 78.8- 73.0- 5.9-
052712:06 pmSSE 21 30----29.69- 78.8- 73.0- 5.9-
052712:00 pm SE 21 28----29.69-0.01 78.3- 72.9- 5.9-
052711:54 am SE 21 27----29.70- 78.3- 73.0- 5.9-
052711:48 am SE 22 26----29.70- 78.1- 73.0- 5.9-
052711:42 am SE 21 28----29.70- 77.7- 72.9- 5.9-
052711:36 am SE 21 26----29.70- 77.5- 72.9- 5.9-
052711:30 am SE 24 28----29.70- 77.2- 72.9- 5.9-
052711:24 am SE 21 26----29.70- 77.0- 72.9- 5.9-
052711:18 am SE 24 29----29.70- 77.0- 73.2- 5.9-
052711:12 am SE 19 23----29.70- 76.6- 73.0- 5.9-
052711:06 am SE 18 24----29.70- 76.5- 72.9- 5.9-
052711:00 am SE 21 25----29.70-0.01 76.3- 72.7- 5.9-
052710:54 am SE 22 28----29.70- 76.1- 72.9- 5.9-
052710:48 am SE 20 23----29.70- 75.9- 72.7- 5.9-
052710:42 am SE 20 23----29.70- 76.1- 72.7- 3.2-
052710:36 am SE 21 25----29.70- 76.3- 72.5- 5.9-
052710:30 am SE 23 27----29.70- 76.5- 72.9- 5.9-
052710:24 am SE 21 25----29.70- 76.5- 72.9- 5.9-
052710:18 am SE 19 28----29.70- 76.3- 72.5- 4.9-
052710:12 am SE 20 27----29.70- 76.5- 72.7- 5.9-
052710:06 am SE 20 26----29.70- 76.3- 72.3- 5.9-
052710:00 am SE 21 27----29.70-0.02 76.3- 72.3- 5.9-
0527 9:54 am SE 20 27----29.70- 76.1- 72.1- 5.9-
0527 9:48 amESE 23 27----29.70- 76.3- 72.3- 5.9-
0527 9:42 amESE 24 27----29.70- 76.3- 72.3- 5.9-
0527 9:36 amESE 22 25----29.70- 76.1- 72.3- 5.9-
0527 9:30 amESE 20 23----29.70- 75.9- 72.0- 5.9-
0527 9:24 am SE 21 25----29.70- 75.9- 72.0- 5.9-
0527 9:18 amESE 23 26----29.70- 75.7- 72.0- 5.9-
0527 9:12 amESE 22 24----29.70- 75.6- 71.8- 5.9-
0527 9:06 amESE 23 27----29.70- 75.7- 72.1- 5.9-
0527 9:00 amESE 21 27----29.70-0.01 75.6- 72.0- 5.9-
0527 8:54 amESE 23 26----29.70- 75.4- 72.0- 5.9-
0527 8:48 amESE 22 28----29.70- 75.4- 72.0- 5.9-
0527 8:42 amESE 21 26----29.71- 75.2- 71.8- 5.9-
0527 8:36 amESE 22 25----29.71- 75.4- 72.1- 5.9-
0527 8:30 amESE 21 26----29.71- 75.4- 72.0- 5.9-
0527 8:24 amESE 21 27----29.71- 75.4- 72.1- 5.9-
0527 8:18 amESE 19 24----29.71- 75.0- 72.0- 5.9-
0527 8:12 amESE 20 24----29.71- 75.0- 72.1- 5.9-
0527 8:06 amESE 18 21----29.71- 74.8- 72.0- 5.9-
0527 8:00 amESE 18 22----29.71-0.01 75.0- 72.1- 5.9-
0527 7:54 amESE 18 24----29.71- 74.8- 72.1- 5.9-
0527 7:48 amESE 18 22----29.71- 74.8- 72.3- 5.9-
0527 7:42 amESE 18 21----29.71- 74.8- 72.3- 5.9-
0527 7:36 am E 19 24----29.71- 74.5- 72.0- 5.9-
0527 7:30 am E 20 24----29.71- 74.5- 72.0- 5.9-
0527 7:24 am E 20 21----29.71- 74.5- 72.1- 5.9-
0527 7:18 am E 19 20----29.71- 74.5- 72.3- 5.9-
0527 7:12 am E 18 22----29.71- 74.3- 72.0- 3.2-
0527 7:06 am E 17 21----29.71- 74.5- 72.1- 4.3-
0527 7:00 amESE 16 19----29.72-0.02 74.5- 72.1- 1.0-
0527 6:54 amESE 18 22----29.72- 74.5- 72.0- 1.7-
0527 6:48 amESE 18 21----29.72- 74.5- 72.0- 3.2-
0527 6:42 amESE 19 22----29.72- 74.3- 71.8- 1.9-
0527 6:36 amESE 18 20----29.72- 74.3- 71.8- 5.9-
0527 6:30 amESE 17 21----29.72- 74.5- 72.0- 2.2-
0527 6:24 amESE 16 19----29.72- 74.3- 71.6- 3.2-
0527 6:18 amESE 17 19----29.72- 74.7- 72.0- 3.2-
0527 6:12 amESE 17 21----29.71- 74.7- 71.8- 5.9-
0527 6:06 amESE 16 20----29.71- 74.7- 71.8- 4.3-
0527 6:00 amESE 17 21----29.72-0.05 74.5- 71.6- 2.2-
0527 5:54 amESE 18 21----29.71- 74.7- 71.8- 1.5-
0527 5:48 amESE 19 23----29.71- 74.7- 71.6- 5.9-
0527 5:42 amESE 18 24----29.71- 74.5- 71.4- 5.9-
0527 5:36 amESE 20 24----29.72- 74.5- 71.4- 5.9-
0527 5:30 amESE 20 23----29.72- 74.5- 71.6- 5.9-
0527 5:24 am E 18 20----29.72- 74.3- 71.2- 5.9-
0527 5:18 am E 19 23----29.72- 74.7- 71.6- 5.9-
0527 5:12 am E 19 22----29.72- 74.7- 71.4- 5.9-
0527 5:06 am E 19 24----29.72- 74.5- 71.2- 5.9-
0527 5:00 am E 19 23----29.72-0.07 74.5- 71.2- 5.9-
0527 4:54 am E 19 22----29.72- 74.3- 71.1- 5.9-

Description of Measurements

Links which are specific to this station are listed below:

Real Time Data in tabular form for the last forty-five days.

Historical Data & Climatic Summaries for quality controlled data for the current month, previous months, and previous years.